CEB687 RPME-RPLL

Flight info

Callsign CEB687
Flight time 1h 16m
Altitude 34000
Route BAMP1B JARED W14 MCT W11 CONDE CONDE1A
Aircraft A20N/M-SDE2E3FGHIJ1RWXY/LB1

Departure

Time 2026-04-23 15:29
Airport Bancasi Airport (RPME)

Arrival

Time 2026-04-23 16:46
Airport Ninoy Aquino International Airport (RPLL)
Time Latitude Longitude Altitude Speed Heading
2026-04-23 14:52 8.94868 125.48159 50 ft 0 kts 236°
2026-04-23 15:24 8.94867 125.48158 50 ft 0 kts 240°
2026-04-23 15:24 8.94869 125.48150 50 ft 1 kts 301°
2026-04-23 15:24 8.94894 125.48144 50 ft 5 kts 348°
2026-04-23 15:25 8.94948 125.48122 48 ft 10 kts 333°
2026-04-23 15:25 8.95031 125.48089 46 ft 13 kts 338°
2026-04-23 15:25 8.95092 125.48006 45 ft 17 kts 297°
2026-04-23 15:25 8.95153 125.47882 43 ft 21 kts 296°
2026-04-23 15:26 8.95224 125.47737 42 ft 23 kts 295°
2026-04-23 15:26 8.95299 125.47584 41 ft 24 kts 297°
2026-04-23 15:26 8.95376 125.47426 39 ft 25 kts 296°
2026-04-23 15:26 8.95456 125.47265 38 ft 25 kts 296°
2026-04-23 15:27 8.95521 125.47131 37 ft 18 kts 296°
2026-04-23 15:27 8.95578 125.47047 35 ft 12 kts 318°
2026-04-23 15:27 8.95617 125.46989 33 ft 6 kts 281°
2026-04-23 15:27 8.95594 125.46978 33 ft 2 kts 129°
2026-04-23 15:28 8.95592 125.46983 34 ft 0 kts 116°
2026-04-23 15:28 8.95552 125.47063 36 ft 46 kts 116°
2026-04-23 15:29 8.95284 125.47611 42 ft 123 kts 116°
2026-04-23 15:29 8.94826 125.48528 312 ft 156 kts 115°
2026-04-23 15:29 8.94347 125.49476 1081 ft 152 kts 115°
2026-04-23 15:29 8.93878 125.50423 1822 ft 152 kts 115°
2026-04-23 15:30 8.93421 125.51357 2429 ft 151 kts 115°
2026-04-23 15:30 8.92954 125.52312 3010 ft 153 kts 115°
2026-04-23 15:30 8.92483 125.53277 3488 ft 161 kts 112°
2026-04-23 15:30 8.92336 125.54439 3828 ft 179 kts 77°
2026-04-23 15:31 8.93009 125.55561 4210 ft 201 kts 42°
2026-04-23 15:31 8.94376 125.56075 4566 ft 227 kts
2026-04-23 15:31 8.95965 125.55592 4913 ft 254 kts 333°
2026-04-23 15:31 8.97518 125.54619 5442 ft 271 kts 328°
2026-04-23 15:32 8.99102 125.53551 6178 ft 276 kts 328°
2026-04-23 15:32 9.00737 125.52470 6969 ft 280 kts 329°
2026-04-23 15:32 9.02379 125.51417 7739 ft 282 kts 329°
2026-04-23 15:32 9.04054 125.50365 8488 ft 285 kts 330°
2026-04-23 15:33 9.05740 125.49314 9212 ft 288 kts 330°
2026-04-23 15:33 9.07452 125.48244 9928 ft 290 kts 328°
2026-04-23 15:33 9.09018 125.46952 10627 ft 294 kts 315°
2026-04-23 15:33 9.10326 125.45337 11119 ft 306 kts 306°
2026-04-23 15:34 9.11577 125.43523 11431 ft 323 kts 305°
2026-04-23 15:34 9.12871 125.41596 11832 ft 336 kts 305°
2026-04-23 15:34 9.14194 125.39631 12439 ft 340 kts 305°
2026-04-23 15:34 9.15536 125.37649 13097 ft 342 kts 305°
2026-04-23 15:35 9.16879 125.35674 13711 ft 344 kts 305°
2026-04-23 15:35 9.18237 125.33683 14269 ft 349 kts 305°
2026-04-23 15:35 9.19621 125.31656 14829 ft 353 kts 305°
2026-04-23 15:35 9.21032 125.29591 15401 ft 356 kts 305°
2026-04-23 15:36 9.22436 125.27538 15939 ft 359 kts 305°
2026-04-23 15:36 9.23858 125.25460 16458 ft 362 kts 305°
2026-04-23 15:36 9.25302 125.23350 16967 ft 366 kts 305°
2026-04-23 15:36 9.26755 125.21226 17462 ft 369 kts 305°
2026-04-23 15:37 9.28220 125.19082 17949 ft 373 kts 306°
2026-04-23 15:37 9.29706 125.16908 18427 ft 376 kts 306°
2026-04-23 15:37 9.31195 125.14728 18903 ft 379 kts 306°
2026-04-23 15:37 9.32702 125.12524 19382 ft 382 kts 306°
2026-04-23 15:38 9.34203 125.10327 19848 ft 384 kts 306°
2026-04-23 15:38 9.35731 125.08091 20318 ft 387 kts 306°
2026-04-23 15:38 9.37259 125.05855 20777 ft 389 kts 306°
2026-04-23 15:38 9.38797 125.03603 21230 ft 392 kts 306°
2026-04-23 15:39 9.40369 125.01301 21682 ft 395 kts 307°
2026-04-23 15:39 9.41915 124.99036 22122 ft 397 kts 307°
2026-04-23 15:39 9.43494 124.96725 22570 ft 400 kts 307°
2026-04-23 15:39 9.45134 124.94443 23022 ft 401 kts 309°
2026-04-23 15:40 9.46918 124.92257 23476 ft 403 kts 313°
2026-04-23 15:40 9.48807 124.90149 23930 ft 405 kts 314°
2026-04-23 15:40 9.50708 124.88056 24365 ft 407 kts 314°
2026-04-23 15:40 9.52655 124.85917 24797 ft 410 kts 314°
2026-04-23 15:41 9.54580 124.83798 25219 ft 412 kts 314°
2026-04-23 15:41 9.56511 124.81670 25637 ft 414 kts 314°
2026-04-23 15:41 9.58472 124.79507 26055 ft 416 kts 313°
2026-04-23 15:41 9.60432 124.77342 26466 ft 418 kts 313°
2026-04-23 15:42 9.62402 124.75166 26863 ft 421 kts 313°
2026-04-23 15:42 9.64384 124.72976 27256 ft 423 kts 313°
2026-04-23 15:42 9.66397 124.70750 27639 ft 425 kts 313°
2026-04-23 15:42 9.68385 124.68550 27995 ft 427 kts 313°
2026-04-23 15:43 9.70387 124.66336 28344 ft 429 kts 313°
2026-04-23 15:43 9.72414 124.64093 28688 ft 431 kts 313°
2026-04-23 15:43 9.74453 124.61836 29030 ft 433 kts 313°
2026-04-23 15:43 9.76477 124.59600 29361 ft 434 kts 313°
2026-04-23 15:44 9.78531 124.57333 29677 ft 436 kts 313°
2026-04-23 15:44 9.80594 124.55056 29977 ft 438 kts 313°
2026-04-23 15:44 9.82651 124.52786 30287 ft 439 kts 312°
2026-04-23 15:44 9.84710 124.50511 30620 ft 439 kts 312°
2026-04-23 15:45 9.86772 124.48233 31026 ft 438 kts 312°
2026-04-23 15:45 9.88814 124.45976 31459 ft 435 kts 312°
2026-04-23 15:45 9.90879 124.43693 31889 ft 432 kts 312°
2026-04-23 15:45 9.92880 124.41479 32286 ft 431 kts 312°
2026-04-23 15:46 9.94927 124.39214 32622 ft 430 kts 312°
2026-04-23 15:46 9.96940 124.36984 32929 ft 431 kts 312°
2026-04-23 15:46 9.98982 124.34724 33224 ft 433 kts 312°
2026-04-23 15:46 10.01022 124.32465 33520 ft 434 kts 312°
2026-04-23 15:47 10.03077 124.30190 33812 ft 435 kts 312°
2026-04-23 15:47 10.07174 124.25655 33910 ft 436 kts 312°
2026-04-23 15:48 10.11287 124.21101 33909 ft 436 kts 312°
2026-04-23 15:48 10.15375 124.16570 33910 ft 435 kts 311°
2026-04-23 15:49 10.19473 124.12024 33907 ft 435 kts 311°
2026-04-23 15:49 10.23533 124.07519 33908 ft 435 kts 311°
2026-04-23 15:50 10.27624 124.02985 33908 ft 435 kts 313°
2026-04-23 15:50 10.32031 123.98717 33912 ft 436 kts 319°
2026-04-23 15:51 10.36850 123.95006 33918 ft 436 kts 324°
2026-04-23 15:51 10.41882 123.91514 33921 ft 436 kts 324°
2026-04-23 15:52 10.46889 123.88045 33920 ft 436 kts 324°
2026-04-23 15:52 10.51895 123.84568 33924 ft 436 kts 324°
2026-04-23 15:53 10.56907 123.81083 33920 ft 435 kts 324°
2026-04-23 15:53 10.61896 123.77612 33918 ft 435 kts 324°
2026-04-23 15:54 10.66917 123.74118 33911 ft 436 kts 324°
2026-04-23 15:54 10.71926 123.70633 33907 ft 436 kts 324°
2026-04-23 15:55 10.76938 123.67144 33903 ft 436 kts 324°
2026-04-23 15:55 10.81957 123.63648 33899 ft 436 kts 324°
2026-04-23 15:56 10.86953 123.60165 33902 ft 436 kts 324°
2026-04-23 15:56 10.91983 123.56657 33898 ft 436 kts 324°
2026-04-23 15:57 10.96994 123.53160 33899 ft 435 kts 324°
2026-04-23 15:57 11.01978 123.49682 33897 ft 435 kts 324°
2026-04-23 15:58 11.06966 123.46201 33896 ft 436 kts 324°
2026-04-23 15:58 11.11995 123.42689 33897 ft 436 kts 324°
2026-04-23 15:59 11.16982 123.39204 33898 ft 436 kts 324°
2026-04-23 15:59 11.22002 123.35695 33899 ft 436 kts 324°
2026-04-23 16:00 11.27003 123.32198 33901 ft 436 kts 324°
2026-04-23 16:00 11.32006 123.28697 33904 ft 436 kts 324°
2026-04-23 16:01 11.37022 123.25185 33904 ft 436 kts 324°
2026-04-23 16:01 11.42009 123.21693 33906 ft 436 kts 324°
2026-04-23 16:02 11.47025 123.18179 33902 ft 437 kts 324°
2026-04-23 16:02 11.52059 123.14651 33899 ft 437 kts 324°
2026-04-23 16:03 11.57050 123.11151 33897 ft 437 kts 324°
2026-04-23 16:03 11.62069 123.07631 33894 ft 437 kts 324°
2026-04-23 16:04 11.67094 123.04103 33895 ft 437 kts 324°
2026-04-23 16:04 11.72099 123.00590 33896 ft 436 kts 324°
2026-04-23 16:05 11.77106 122.97073 33897 ft 437 kts 324°
2026-04-23 16:05 11.82105 122.93559 33897 ft 437 kts 324°
2026-04-23 16:06 11.87119 122.90034 33896 ft 437 kts 324°
2026-04-23 16:06 11.92138 122.86504 33896 ft 437 kts 324°
2026-04-23 16:07 11.97146 122.82981 33896 ft 437 kts 324°
2026-04-23 16:07 12.02169 122.79443 33896 ft 437 kts 324°
2026-04-23 16:08 12.07152 122.75933 33895 ft 437 kts 324°
2026-04-23 16:08 12.12195 122.72379 33896 ft 437 kts 324°
2026-04-23 16:09 12.17200 122.68849 33895 ft 437 kts 324°
2026-04-23 16:09 12.22187 122.65332 33896 ft 436 kts 324°
2026-04-23 16:10 12.27196 122.61797 33894 ft 436 kts 324°
2026-04-23 16:10 12.32180 122.58278 33895 ft 436 kts 324°
2026-04-23 16:11 12.37201 122.54730 33896 ft 436 kts 324°
2026-04-23 16:11 12.42189 122.51207 33895 ft 436 kts 324°
2026-04-23 16:12 12.47189 122.47672 33895 ft 436 kts 324°
2026-04-23 16:12 12.52188 122.44136 33899 ft 436 kts 324°
2026-04-23 16:13 12.57165 122.40614 33901 ft 436 kts 324°
2026-04-23 16:13 12.64640 122.35320 33897 ft 435 kts 324°
2026-04-23 16:14 12.69634 122.31781 33897 ft 435 kts 323°
2026-04-23 16:14 12.74625 122.28243 33896 ft 435 kts 324°
2026-04-23 16:15 12.79607 122.24709 33896 ft 435 kts 324°
2026-04-23 16:15 12.84577 122.21183 33897 ft 435 kts 323°
2026-04-23 16:16 12.89550 122.17652 33897 ft 435 kts 324°
2026-04-23 16:16 12.94528 122.14116 33896 ft 435 kts 323°
2026-04-23 16:17 12.99506 122.10578 33896 ft 435 kts 323°
2026-04-23 16:17 13.04480 122.07041 33903 ft 434 kts 324°
2026-04-23 16:18 13.09420 122.03526 33442 ft 433 kts 324°
2026-04-23 16:18 13.11950 122.01725 32338 ft 442 kts 324°
2026-04-23 16:18 13.14469 121.99931 31184 ft 446 kts 324°
2026-04-23 16:19 13.17026 121.98109 29806 ft 451 kts 324°
2026-04-23 16:19 13.19579 121.96289 28493 ft 452 kts 324°
2026-04-23 16:19 13.22145 121.94462 27543 ft 443 kts 324°
2026-04-23 16:19 13.24654 121.92674 26629 ft 434 kts 324°
2026-04-23 16:20 13.27095 121.90936 25688 ft 427 kts 324°
2026-04-23 16:20 13.29513 121.89212 24721 ft 420 kts 324°
2026-04-23 16:20 13.31879 121.87526 23761 ft 414 kts 324°
2026-04-23 16:20 13.34207 121.85866 22840 ft 407 kts 324°
2026-04-23 16:21 13.36519 121.84216 22092 ft 396 kts 324°
2026-04-23 16:21 13.38741 121.82631 21611 ft 386 kts 324°
2026-04-23 16:21 13.40949 121.81055 21148 ft 383 kts 324°
2026-04-23 16:21 13.43106 121.79514 20692 ft 381 kts 324°
2026-04-23 16:22 13.45291 121.77953 20230 ft 379 kts 325°
2026-04-23 16:22 13.47450 121.76410 19769 ft 377 kts 325°
2026-04-23 16:22 13.49584 121.74886 19318 ft 376 kts 325°
2026-04-23 16:22 13.51740 121.73345 18862 ft 374 kts 325°
2026-04-23 16:23 13.53861 121.71829 18414 ft 372 kts 325°
2026-04-23 16:23 13.56004 121.70297 17959 ft 370 kts 325°
2026-04-23 16:23 13.58092 121.68803 17508 ft 369 kts 325°
2026-04-23 16:23 13.60200 121.67297 17071 ft 367 kts 325°
2026-04-23 16:24 13.62290 121.65801 16623 ft 365 kts 325°
2026-04-23 16:24 13.64377 121.64318 16209 ft 362 kts 325°
2026-04-23 16:24 13.66418 121.62876 16016 ft 351 kts 325°
2026-04-23 16:24 13.68425 121.61457 15825 ft 340 kts 325°
2026-04-23 16:25 13.70329 121.60107 15667 ft 330 kts 325°
2026-04-23 16:25 13.72191 121.58781 15490 ft 322 kts 325°
2026-04-23 16:25 13.74044 121.57458 15154 ft 318 kts 325°
2026-04-23 16:25 13.75849 121.56171 14768 ft 317 kts 325°
2026-04-23 16:26 13.77664 121.54873 14408 ft 315 kts 325°
2026-04-23 16:26 13.79452 121.53593 14046 ft 313 kts 325°
2026-04-23 16:26 13.81224 121.52325 13668 ft 312 kts 325°
2026-04-23 16:26 13.83019 121.51035 13289 ft 311 kts 325°
2026-04-23 16:27 13.84770 121.49777 12905 ft 310 kts 325°
2026-04-23 16:27 13.86548 121.48502 12534 ft 308 kts 325°
2026-04-23 16:27 13.88305 121.47247 12172 ft 306 kts 325°
2026-04-23 16:27 13.90044 121.46001 11822 ft 304 kts 325°
2026-04-23 16:28 13.91797 121.44749 11466 ft 302 kts 325°
2026-04-23 16:28 13.93519 121.43515 11120 ft 300 kts 325°
2026-04-23 16:28 13.95232 121.42287 10770 ft 298 kts 325°
2026-04-23 16:28 13.96924 121.41074 10410 ft 296 kts 325°
2026-04-23 16:29 13.98606 121.39871 10048 ft 295 kts 325°
2026-04-23 16:29 14.00290 121.38666 9685 ft 293 kts 325°
2026-04-23 16:29 14.01974 121.37461 9332 ft 292 kts 325°
2026-04-23 16:29 14.03634 121.36270 8982 ft 290 kts 324°
2026-04-23 16:30 14.05104 121.34885 8623 ft 288 kts 311°
2026-04-23 16:30 14.06370 121.33273 8278 ft 286 kts 308°
2026-04-23 16:30 14.07565 121.31658 7915 ft 285 kts 307°
2026-04-23 16:30 14.08761 121.30030 7548 ft 284 kts 307°
2026-04-23 16:31 14.09951 121.28408 7188 ft 283 kts 307°
2026-04-23 16:31 14.11147 121.26780 7024 ft 281 kts 307°
2026-04-23 16:31 14.12322 121.25178 7025 ft 283 kts 307°
2026-04-23 16:31 14.13512 121.23552 7021 ft 283 kts 307°
2026-04-23 16:32 14.14699 121.21924 7014 ft 283 kts 307°
2026-04-23 16:32 14.15887 121.20289 7009 ft 284 kts 307°
2026-04-23 16:32 14.17070 121.18658 7011 ft 284 kts 307°
2026-04-23 16:32 14.18249 121.17033 7006 ft 284 kts 307°
2026-04-23 16:33 14.19431 121.15404 7010 ft 284 kts 307°
2026-04-23 16:33 14.20623 121.13763 6999 ft 284 kts 307°
2026-04-23 16:33 14.21804 121.12139 6999 ft 284 kts 307°
2026-04-23 16:33 14.22977 121.10525 6949 ft 281 kts 307°
2026-04-23 16:34 14.24160 121.08901 6579 ft 281 kts 307°
2026-04-23 16:34 14.25332 121.07287 6158 ft 282 kts 307°
2026-04-23 16:34 14.26498 121.05673 5795 ft 280 kts 307°
2026-04-23 16:34 14.27659 121.04069 5416 ft 279 kts 307°
2026-04-23 16:35 14.28814 121.02476 5089 ft 277 kts 307°
2026-04-23 16:35 14.29963 121.00894 4996 ft 277 kts 307°
2026-04-23 16:35 14.31133 120.99284 4994 ft 278 kts 307°
2026-04-23 16:35 14.32367 120.97757 4985 ft 278 kts 314°
2026-04-23 16:36 14.33739 120.96355 5007 ft 277 kts 316°
2026-04-23 16:36 14.35145 120.94974 4805 ft 274 kts 317°
2026-04-23 16:36 14.36531 120.93621 4406 ft 275 kts 317°
2026-04-23 16:36 14.37910 120.92277 4021 ft 275 kts 317°
2026-04-23 16:37 14.39303 120.90920 3678 ft 273 kts 317°
2026-04-23 16:37 14.40686 120.89578 3327 ft 272 kts 317°
2026-04-23 16:37 14.42065 120.88250 3031 ft 269 kts 317°
2026-04-23 16:37 14.43535 120.87067 2976 ft 270 kts 331°
2026-04-23 16:38 14.45231 120.86187 2973 ft 269 kts 336°
2026-04-23 16:38 14.46920 120.85400 2969 ft 266 kts 337°
2026-04-23 16:38 14.48633 120.84616 2970 ft 267 kts 337°
2026-04-23 16:38 14.50318 120.83847 2970 ft 267 kts 337°
2026-04-23 16:39 14.52035 120.83064 2974 ft 265 kts 337°
2026-04-23 16:39 14.53715 120.82299 2969 ft 257 kts 337°
2026-04-23 16:39 14.55309 120.81573 2958 ft 242 kts 337°
2026-04-23 16:39 14.56809 120.80891 2956 ft 227 kts 336°
2026-04-23 16:40 14.58223 120.80276 2949 ft 212 kts 337°
2026-04-23 16:40 14.59598 120.79948 2887 ft 198 kts
2026-04-23 16:40 14.60783 120.80550 2833 ft 192 kts 41°
2026-04-23 16:40 14.61522 120.81712 2714 ft 193 kts 68°
2026-04-23 16:41 14.61939 120.83024 2671 ft 191 kts 71°
2026-04-23 16:41 14.62329 120.84319 2673 ft 190 kts 71°
2026-04-23 16:41 14.62731 120.85595 2662 ft 181 kts 70°
2026-04-23 16:41 14.63123 120.86838 2660 ft 182 kts 76°
2026-04-23 16:42 14.62990 120.88106 2641 ft 180 kts 119°
2026-04-23 16:42 14.62203 120.89088 2683 ft 178 kts 133°
2026-04-23 16:42 14.61314 120.89992 2665 ft 178 kts 134°
2026-04-23 16:42 14.60455 120.90891 2430 ft 170 kts 133°
2026-04-23 16:43 14.59669 120.91754 2202 ft 162 kts 132°
2026-04-23 16:43 14.58919 120.92605 1989 ft 154 kts 131°
2026-04-23 16:43 14.58229 120.93401 1768 ft 148 kts 131°
2026-04-23 16:43 14.57546 120.94199 1578 ft 148 kts 130°
2026-04-23 16:44 14.56868 120.94996 1384 ft 146 kts 130°
2026-04-23 16:44 14.56198 120.95788 1199 ft 145 kts 130°
2026-04-23 16:44 14.55618 120.96628 995 ft 143 kts 118°
2026-04-23 16:44 14.55100 120.97506 796 ft 142 kts 126°
2026-04-23 16:45 14.54458 120.98265 627 ft 141 kts 134°
2026-04-23 16:45 14.53754 120.98968 454 ft 139 kts 135°
2026-04-23 16:45 14.53070 120.99676 292 ft 138 kts 134°
2026-04-23 16:45 14.52391 121.00377 131 ft 137 kts 134°
2026-04-23 16:46 14.51746 121.01038 82 ft 107 kts 133°
2026-04-23 16:46 14.51423 121.01380 82 ft 41 kts 136°
2026-04-23 16:46 14.51236 121.01570 82 ft 33 kts 135°
2026-04-23 16:46 14.51088 121.01722 82 ft 25 kts 134°
2026-04-23 16:47 14.51026 121.01811 82 ft 9 kts 79°
2026-04-23 16:47 14.51069 121.01865 82 ft 10 kts 11°
2026-04-23 16:47 14.51128 121.01823 82 ft 11 kts 314°
2026-04-23 16:47 14.51186 121.01765 82 ft 12 kts 315°
2026-04-23 16:48 14.51255 121.01695 82 ft 15 kts 314°
2026-04-23 16:48 14.51338 121.01608 82 ft 18 kts 315°
2026-04-23 16:48 14.51430 121.01514 82 ft 18 kts 314°
2026-04-23 16:48 14.51518 121.01420 82 ft 18 kts 314°
2026-04-23 16:49 14.51609 121.01327 82 ft 18 kts 315°
2026-04-23 16:49 14.51699 121.01234 82 ft 18 kts 315°
2026-04-23 16:49 14.51788 121.01140 82 ft 18 kts 314°
2026-04-23 16:49 14.51878 121.01047 82 ft 18 kts 315°
2026-04-23 16:50 14.51966 121.00957 82 ft 18 kts 314°
2026-04-23 16:50 14.52056 121.00864 82 ft 18 kts 315°
2026-04-23 16:50 14.52139 121.00778 82 ft 13 kts 314°
2026-04-23 16:50 14.52201 121.00767 82 ft 10 kts 39°
2026-04-23 16:51 14.52257 121.00761 82 ft 9 kts 317°
2026-04-23 16:51 14.52308 121.00710 82 ft 10 kts 314°
2026-04-23 16:51 14.52362 121.00652 82 ft 8 kts 315°
2026-04-23 16:51 14.52396 121.00642 82 ft 5 kts 31°
2026-04-23 16:52 14.52425 121.00672 82 ft 5 kts 45°
2026-04-23 16:52 14.52437 121.00684 82 ft 0 kts 44°